Location: *
(58.4167°N, 22.5000°E)
Time: 11:02:43
(UTC+00:00)

USA 186 - Pass Details

Date: 22 September 2019
Orbit: 261 x 450 km, 96.9° (Epoch: 07 October)

Event Time Altitude Azimuth Distance (km) Brightness Sun altitude
Exits shadow 18:05:08 - 177° (S) 2,363 5.3 -12.9°
Reaches altitude 10° 18:06:59 10° 181° (S) 1,590 4.5 -13.1°
Maximum altitude 18:10:21 52° 260° (W) 568 2.7 -13.5°
Drops below altitude 10° 18:13:42 10° 338° (NNW) 1,578 5.3 -13.9°
Sets 18:15:45 0° 343° (NNW) 2,435 6.3 -14.2°
